HULIANGWANG DIGUI-03

Last updated on Thu Jan 16 2025 00:02:04 GMT+0000 (Coordinated Universal Time)

1 62325U 24240C 25015.56473972 .00000077 00000+0 11780-3 0 9999 2 62325 86.5017 158.4200 0012018 207.2797 152.7715 13.37561141 4030
UTC large
Height (km)
Speed (km/s)
/
Latitude / Longitude
Inclination (degrees)
Orbital Period (minutes)
Azimuth
Elevation
Range (km)
Doppler Factor

Next 0 passes for location: London (51.5072 / 0.1276)

Sorry there are no passes over London.